Soldotna, AK

1:06 AM AKDT on May 30, 2017 (GMT -0800)
Soldotna

Weather History for PASX - April, 2014

Change the Weather History Date:

Tuesday, April 1, 2014

  Actual Average Record
Temperature  
Mean Temperature 26 °F -  
Max Temperature 41 °F 36 °F 51 °F (2016)
Min Temperature 12 °F 20 °F -16 °F (1985)
Degree Days  
Heating Degree Days 38    
Moisture  
Dew Point 13 °F    
Average Humidity 60    
Maximum Humidity 85    
Minimum Humidity 36    
Precipitation  
Precipitation 0.00 in - - ()
Sea Level Pressure  
Sea Level Pressure 29.91 in    
Wind  
Wind Speed 2 mph (North)    
Max Wind Speed 10 mph    
Max Gust Speed -    
Visibility 10 miles    
Events      
Averages and records for this station are not official NWS values.
T = Trace of Precipitation, MM = Missing Value Source: NWS Daily Summary

Daily Weather History Graph

Daily Weather History Graph

Search for Another Location

Airport or City:

Trip Planner

Search our weather history database for the weather conditions in past years. The results will help you decide how hot, cold, wet, or windy it might be!

Date:

Astronomy

Apr. 01, 2014 Rise Set
Actual Time 7:27 AM AKDT 8:49 PM AKDT
Civil Twilight 6:44 AM AKDT 9:33 PM AKDT
Nautical Twilight 5:49 AM AKDT 10:28 PM AKDT
Astronomical Twilight 4:45 AM AKDT 11:33 PM AKDT
Moon 8:05 AM AKDT (4/1) No Moon Set
Length of Visible Light 14h 48m
Length of Day
13h 21m
Waxing Crescent, 5% of the Moon is Illuminated
Apr 1
Waxing Crescent
Apr 7
First Quarter
Apr 14
Full
Apr 21
Last Quarter
Apr 28
New

Hourly Weather History & Observations

Time (AKDT) Temp. Windchill Dew Point Humidity Pressure Visibility Wind Dir Wind Speed Gust Speed Precip Events Conditions
12:16 AM 21.2 °F - 14.0 °F 74% 29.99 in 10.0 mi Calm Calm - N/A   Clear
12:36 AM 21.2 °F - 10.4 °F 63% 29.99 in 10.0 mi Calm Calm - N/A   Clear
12:56 AM 19.4 °F - 12.2 °F 74% 29.99 in 10.0 mi Calm Calm - N/A   Clear
1:16 AM 19.4 °F - 10.4 °F 68% 29.98 in 10.0 mi Calm Calm - N/A   Clear
1:36 AM 17.6 °F - 10.4 °F 73% 29.98 in 10.0 mi Calm Calm - N/A   Clear
1:56 AM 17.6 °F - 10.4 °F 73% 29.98 in 10.0 mi Calm Calm - N/A   Clear
2:16 AM 17.6 °F - 8.6 °F 68% 29.98 in 10.0 mi Calm Calm - N/A   Clear
2:36 AM 15.8 °F - 8.6 °F 73% 29.97 in 10.0 mi Calm Calm - N/A   Clear
2:56 AM 15.8 °F - 8.6 °F 73% 29.97 in 10.0 mi Calm Calm - N/A   Clear
3:16 AM 15.8 °F - 10.4 °F 79% 29.97 in 10.0 mi Calm Calm - N/A   Clear
3:36 AM 15.8 °F - 8.6 °F 73% 29.96 in 10.0 mi Calm Calm - N/A   Clear
3:56 AM 15.8 °F - 10.4 °F 79% 29.96 in 10.0 mi Calm Calm - N/A   Clear
4:16 AM 15.8 °F - 8.6 °F 73% 29.96 in 10.0 mi Calm Calm - N/A   Clear
4:36 AM 14.0 °F - 8.6 °F 79% 29.95 in 10.0 mi Calm Calm - N/A   Clear
4:56 AM 15.8 °F - 10.4 °F 79% 29.95 in 10.0 mi Calm Calm - N/A   Clear
5:16 AM 12.2 °F - 8.6 °F 85% 29.95 in 10.0 mi Calm Calm - N/A   Clear
5:36 AM 12.2 °F - 6.8 °F 79% 29.94 in 10.0 mi Calm Calm - N/A   Clear
5:56 AM 12.2 °F - 8.6 °F 85% 29.94 in 10.0 mi Calm Calm - N/A   Clear
6:16 AM 14.0 °F - 8.6 °F 79% 29.94 in 10.0 mi Calm Calm - N/A   Clear
6:36 AM 12.2 °F 4.3 °F 6.8 °F 79% 29.94 in 10.0 mi ENE 4.6 mph - N/A   Clear
6:56 AM 12.2 °F - 8.6 °F 85% 29.94 in 10.0 mi Calm Calm - N/A   Clear
7:16 AM 12.2 °F 6.1 °F 6.8 °F 79% 29.94 in 10.0 mi East 3.5 mph - N/A   Clear
7:36 AM 12.2 °F 6.1 °F 8.6 °F 85% 29.93 in 10.0 mi ENE 3.5 mph - N/A   Clear
7:56 AM 12.2 °F 6.1 °F 6.8 °F 79% 29.93 in 10.0 mi East 3.5 mph - N/A   Clear
8:16 AM 14.0 °F 6.5 °F 8.6 °F 79% 29.93 in 10.0 mi East 4.6 mph - N/A   Clear
8:36 AM 14.0 °F 6.5 °F 8.6 °F 79% 29.93 in 10.0 mi East 4.6 mph - N/A   Clear
8:56 AM 15.8 °F 10.2 °F 10.4 °F 79% 29.93 in 10.0 mi ENE 3.5 mph - N/A   Clear
9:16 AM 17.6 °F - 10.4 °F 73% 29.93 in 10.0 mi Calm Calm - N/A   Clear
9:36 AM 19.4 °F 14.3 °F 12.2 °F 74% 29.93 in 10.0 mi East 3.5 mph - N/A   Clear
9:56 AM 21.2 °F - 12.2 °F 68% 29.93 in 10.0 mi Calm Calm - N/A   Clear
10:16 AM 24.8 °F - 14.0 °F 64% 29.92 in 10.0 mi Calm Calm - N/A   Clear
10:36 AM 26.6 °F - 15.8 °F 64% 29.92 in 10.0 mi Calm Calm - N/A   Clear
10:56 AM 30.2 °F 26.7 °F 17.6 °F 60% 29.93 in 10.0 mi ESE 3.5 mph - N/A   Clear
11:16 AM 28.4 °F - 17.6 °F 64% 29.92 in 10.0 mi Calm Calm - N/A   Clear
11:36 AM 30.2 °F 25.4 °F 17.6 °F 60% 29.93 in 10.0 mi NE 4.6 mph - N/A   Clear
11:56 AM 33.8 °F 30.8 °F 17.6 °F 52% 29.92 in 10.0 mi ENE 3.5 mph - N/A   Clear
12:16 PM 33.8 °F 30.8 °F 15.8 °F 48% 29.92 in 10.0 mi ENE 3.5 mph - N/A   Clear
12:36 PM 35.6 °F 32.8 °F 17.6 °F 48% 29.91 in 10.0 mi North 3.5 mph - N/A   Clear
12:56 PM 35.6 °F 29.9 °F 15.8 °F 44% 29.91 in 10.0 mi North 6.9 mph - N/A   Clear
1:16 PM 35.6 °F - 15.8 °F 44% 29.91 in 10.0 mi Calm Calm - N/A   Clear
1:36 PM 35.6 °F 29.9 °F 15.8 °F 44% 29.91 in 10.0 mi WNW 6.9 mph - N/A   Clear
1:56 PM 37.4 °F 32.8 °F 15.8 °F 41% 29.90 in 10.0 mi NW 5.8 mph - N/A   Clear
2:16 PM 37.4 °F 33.8 °F 15.8 °F 41% 29.90 in 10.0 mi WNW 4.6 mph - N/A   Clear
2:36 PM 37.4 °F - 15.8 °F 41% 29.90 in 10.0 mi Calm Calm - N/A   Clear
2:56 PM 39.2 °F 33.6 °F 17.6 °F 42% 29.89 in 10.0 mi WNW 8.1 mph - N/A   Clear
3:16 PM 39.2 °F 35.9 °F 17.6 °F 42% 29.89 in 10.0 mi WSW 4.6 mph - N/A   Clear
3:36 PM 39.2 °F 33.6 °F 15.8 °F 39% 29.88 in 10.0 mi WSW 8.1 mph - N/A   Clear
3:56 PM 39.2 °F 33.6 °F 17.6 °F 42% 29.87 in 10.0 mi West 8.1 mph - N/A   Clear
4:16 PM 39.2 °F 33.6 °F 15.8 °F 39% 29.87 in 10.0 mi NW 8.1 mph - N/A   Clear
4:36 PM 39.2 °F 32.5 °F 15.8 °F 39% 29.87 in 10.0 mi NW 10.4 mph - N/A   Clear
4:56 PM 39.2 °F 35.0 °F 15.8 °F 39% 29.86 in 10.0 mi NNW 5.8 mph - N/A   Clear
5:16 PM 39.2 °F 34.2 °F 15.8 °F 39% 29.86 in 10.0 mi North 6.9 mph - N/A   Clear
5:36 PM 41.0 °F 38.0 °F 15.8 °F 36% 29.85 in 10.0 mi North 4.6 mph - N/A   Clear
5:56 PM 41.0 °F 36.4 °F 15.8 °F 36% 29.85 in 10.0 mi NNW 6.9 mph - N/A   Clear
6:16 PM 39.2 °F 37.0 °F 15.8 °F 39% 29.85 in 10.0 mi NNW 3.5 mph - N/A   Clear
6:36 PM 39.2 °F 34.2 °F 15.8 °F 39% 29.86 in 10.0 mi NNW 6.9 mph - N/A   Clear
6:56 PM 39.2 °F 35.0 °F 15.8 °F 39% 29.86 in 10.0 mi NNW 5.8 mph - N/A   Clear
7:16 PM 39.2 °F 35.9 °F 15.8 °F 39% 29.86 in 10.0 mi North 4.6 mph - N/A   Clear
7:36 PM 39.2 °F 35.9 °F 15.8 °F 39% 29.86 in 10.0 mi NW 4.6 mph - N/A   Clear
7:56 PM 37.4 °F 33.8 °F 15.8 °F 41% 29.86 in 10.0 mi NW 4.6 mph - N/A   Clear
8:16 PM 37.4 °F 34.9 °F 14.0 °F 38% 29.87 in 10.0 mi WNW 3.5 mph - N/A   Clear
8:36 PM 35.6 °F 31.7 °F 14.0 °F 41% 29.87 in 10.0 mi West 4.6 mph - N/A   Clear
8:56 PM 35.6 °F 30.7 °F 12.2 °F 38% 29.87 in 10.0 mi West 5.8 mph - N/A   Clear
9:16 PM 30.2 °F - 14.0 °F 51% 29.87 in 10.0 mi Calm Calm - N/A   Clear
9:36 PM 30.2 °F - 14.0 °F 51% 29.87 in 10.0 mi Calm Calm - N/A   Clear
9:56 PM 26.6 °F - 15.8 °F 64% 29.88 in 10.0 mi Calm Calm - N/A   Clear
10:16 PM 26.6 °F - 14.0 °F 59% 29.88 in 10.0 mi Calm Calm - N/A   Clear
10:36 PM 24.8 °F - 15.8 °F 69% 29.88 in 10.0 mi Calm Calm - N/A   Clear
10:56 PM 24.8 °F - 14.0 °F 64% 29.88 in 10.0 mi Calm Calm - N/A   Clear
11:16 PM 24.8 °F - 15.8 °F 69% 29.89 in 10.0 mi Calm Calm - N/A   Clear
11:36 PM 24.8 °F - 15.8 °F 69% 29.89 in 10.0 mi Calm Calm - N/A   Clear
11:56 PM 23.0 °F - 12.2 °F 63% 29.89 in 10.0 mi Calm Calm - N/A   Clear